| time (UTC) | temp F | wind direction | speed MPH | gust MPH | rain 1hr in | rain 24hr in | rain mn in | humidity % | barometer mb |
| 20260504190013 | 53 | 225 | 6.0 | 13.0 | 0.00 | 0.00 | 0.00 | 52 | 1003.3 |
| 20260504184511 | 53 | 189 | 6.0 | 15.0 | 0.00 | 0.00 | 0.00 | 49 | 1003.3 |
| 20260504183011 | 54 | 234 | 6.0 | 16.0 | 0.00 | 0.00 | 0.00 | 47 | 1003.3 |
| 20260504181517 | 55 | 215 | 5.0 | 20.0 | 0.00 | 0.00 | 0.00 | 45 | 1003.2 |
| 20260504180011 | 57 | 219 | 4.0 | 13.0 | 0.00 | 0.00 | 0.00 | 43 | 1003.2 |
| 20260504174513 | 58 | 254 | 13.0 | 22.0 | 0.00 | 0.00 | 0.00 | 41 | 1003.0 |
| 20260504173009 | 58 | 255 | 5.0 | 17.0 | 0.00 | 0.00 | 0.00 | 42 | 1003.2 |
| 20260504171509 | 58 | 284 | 7.0 | 24.0 | 0.00 | 0.00 | 0.00 | 39 | 1003.0 |
| 20260504170108 | 59 | 279 | 10.0 | 24.0 | 0.00 | 0.00 | 0.00 | 38 | 1002.9 |
| 20260504081507 | 52 | 302 | 3.0 | 12.0 | 0.00 | 0.00 | 0.00 | 48 | 1004.4 |
| 20260504044545 | 46 | 236 | 1.0 | 4.0 | 0.00 | 0.00 | 0.00 | 94 | 1003.8 |
| 20260504043055 | 46 | 219 | 1.0 | 5.0 | 0.00 | 0.00 | 0.00 | 94 | 1003.7 |
| 20260504041544 | 46 | 194 | 1.0 | 4.0 | 0.00 | 0.00 | 0.00 | 94 | 1003.9 |
| 20260504040046 | 46 | 167 | 2.0 | 6.0 | 0.00 | 0.00 | 0.00 | 93 | 1004.0 |
| 20260504034549 | 46 | 191 | 2.0 | 6.0 | 0.00 | 0.00 | 0.00 | 93 | 1004.0 |
| 20260504033041 | 47 | 218 | 1.0 | 5.0 | 0.00 | 0.00 | 0.00 | 92 | 1004.2 |
| 20260504031538 | 47 | 229 | 3.0 | 4.0 | 0.00 | 0.00 | 0.00 | 91 | 1004.2 |
| 20260504030042 | 47 | 215 | 2.0 | 7.0 | 0.00 | 0.00 | 0.00 | 92 | 1004.2 |
| 20260504024535 | 47 | 210 | 3.0 | 5.0 | 0.00 | 0.00 | 0.00 | 92 | 1004.2 |
| 20260504023034 | 47 | 180 | 1.0 | 4.0 | 0.00 | 0.00 | 0.00 | 92 | 1004.4 |
| 20260504021535 | 47 | 204 | 1.0 | 3.0 | 0.00 | 0.00 | 0.00 | 92 | 1004.6 |
| 20260504020037 | 47 | 181 | 2.0 | 7.0 | 0.00 | 0.00 | 0.00 | 93 | 1004.7 |
| 20260504014536 | 47 | 187 | 0.0 | 3.0 | 0.00 | 0.00 | 0.00 | 92 | 1004.8 |
| 20260504013029 | 47 | 167 | 1.0 | 5.0 | 0.00 | 0.00 | 0.00 | 92 | 1004.8 |
| 20260504011526 | 47 | 188 | 1.0 | 4.0 | 0.00 | 0.00 | 0.00 | 92 | 1004.9 |
| 20260504010124 | 47 | 159 | 2.0 | 4.0 | 0.00 | 0.00 | 0.00 | 92 | 1004.9 |
| 20260504004521 | 47 | 168 | 2.0 | 5.0 | 0.00 | 0.00 | 0.00 | 91 | 1005.2 |
| 20260504003019 | 47 | 186 | 2.0 | 5.0 | 0.00 | 0.00 | 0.00 | 91 | 1005.4 |
| 20260504001517 | 47 | 165 | 3.0 | 7.0 | 0.00 | 0.00 | 0.00 | 91 | 1005.6 |
| 20260504000015 | 47 | 180 | 2.0 | 6.0 | 0.00 | 0.00 | 0.00 | 92 | 1005.7 |
| 20260503234517 | 47 | 169 | 1.0 | 5.0 | 0.00 | 0.00 | 0.00 | 92 | 1005.8 |
| 20260503233009 | 48 | 166 | 2.0 | 6.0 | 0.00 | 0.00 | 0.00 | 92 | 1006.1 |
| 20260503231506 | 48 | 180 | 2.0 | 6.0 | 0.00 | 0.00 | 0.00 | 93 | 1006.4 |
| 20260503230004 | 48 | 174 | 1.0 | 5.0 | 0.00 | 0.00 | 0.00 | 92 | 1006.5 |
| 20260503224502 | 48 | 161 | 2.0 | 5.0 | 0.00 | 0.00 | 0.00 | 92 | 1006.4 |
| 20260503223102 | 48 | 158 | 2.0 | 5.0 | 0.00 | 0.00 | 0.00 | 92 | 1006.6 |
| 20260503221602 | 48 | 167 | 4.0 | 8.0 | 0.00 | 0.00 | 0.00 | 92 | 1006.7 |
| 20260503220056 | 48 | 163 | 4.0 | 7.0 | 0.00 | 0.00 | 0.00 | 91 | 1006.8 |
| 20260503214554 | 48 | 192 | 1.0 | 4.0 | 0.00 | 0.00 | 0.00 | 91 | 1006.9 |
| 20260503213101 | 48 | 146 | 2.0 | 4.0 | 0.00 | 0.00 | 0.00 | 91 | 1007.0 |
| 20260503211610 | 49 | 149 | 2.0 | 7.0 | 0.00 | 0.00 | 0.00 | 90 | 1007.1 |
| 20260503210052 | 49 | 140 | 2.0 | 7.0 | 0.00 | 0.00 | 0.00 | 90 | 1007.2 |
| 20260503204550 | 49 | 125 | 2.0 | 7.0 | 0.00 | 0.00 | 0.00 | 89 | 1007.3 |
| 20260503203052 | 49 | 129 | 2.0 | 7.0 | 0.00 | 0.00 | 0.00 | 89 | 1007.5 |
| 20260503201550 | 49 | 114 | 4.0 | 10.0 | 0.00 | 0.00 | 0.00 | 89 | 1007.5 |
| 20260503200058 | 49 | 149 | 2.0 | 11.0 | 0.00 | 0.00 | 0.00 | 87 | 1007.5 |
| 20260503194556 | 49 | 120 | 4.0 | 8.0 | 0.00 | 0.01 | 0.00 | 87 | 1007.6 |
| 20260503193058 | 49 | 143 | 4.0 | 12.0 | 0.00 | 0.01 | 0.00 | 86 | 1007.6 |
| 20260503191549 | 50 | 142 | 4.0 | 10.0 | 0.00 | 0.01 | 0.00 | 85 | 1007.7 |